sat.trackr.live / text

‹ back to catalog

GPS BIIRM-5 (PRN 29)

NORAD 32384 · 2007-062A

PAYLOAD ACTIVE UNKNOWN

§ Identity

Operator
Country
US
Launch date
2007-12-20
Launch site
AFETR
Launch vehicle
Mass (kg)
RCS (m²)
2.00

Purposes: earth_obs, nav

External: N2YO · Heavens-Above · Gunter

§ Orbital elements

Epoch: 2026-09-11T12:08:59.944704Z

Period
717.97 min
Inclination
54.9683°
Eccentricity
0.0036022
Mean motion
2.00564777 rev/d
Perigee alt
20,086.4 km
Apogee alt
20,277.8 km
Semi-major
26,560.2 km
B*
0.0000e+0
RAAN
270.6753°
Arg perigee
170.0540°
Mean anomaly
336.6027°
Rev number
13,724

§ Raw data

GPS BIIRM-5 (PRN 29)1 32384U 07062A   26254.50624936 -.00000014  00000+0  00000+0 0  99932 32384  54.9683 270.6753 0036022 170.0540 336.6027  2.00564777137249

JSON: /api/v1/satellites/32384 · /tle

For live sub-satellite position, see the globe view (requires WebGL).

§ Visibility from observer

Set your observer location to see the next 7 days of passes ≥ 10°. The values pass through the URL so the page stays shareable.

No JS? Fill the form by hand. The geolocation button needs JavaScript.